Location: Caseificio
(44.7500°N, 11.0500°E)
Time: 16:33:26
(UTC+00:00)

CZ-2D R/B - Pass Details

Date: 26 May 2022
Orbit: 790 x 845 km, 98.7° (Epoch: 06 July)

Event Time Altitude Azimuth Distance (km) Brightness Sun altitude
Rises 00:52:24 0° 15° (NNE) 3,379 6.8 -20.3°
Reaches altitude 10° 00:54:47 10° 16° (NNE) 2,434 5.8 -20.2°
Maximum altitude 01:00:11 79° 104° (ESE) 835 2.1 -19.7°
Enters shadow 01:02:29 35° 185° (S) 1,279 2.6 -19.6°
